Tracking 29892 objects as of 21-Nov-2024
HD Live streaming from Space Station
objects crossing your sky now

THORAD AGENA D DEB

Track THORAD AGENA D DEB now!
10-day predictions


NORAD ID: 4710
Int'l Code: 1970-025BY
Perigee: 1,055.0 km
Apogee: 1,062.2 km
Inclination: 100.2 °
Period: 106.2 minutes
Semi major axis: 7429 km
RCS: 0.052 m2 (small)
Launch date: April 8, 1970
Source: United States (US)
Launch site: AIR FORCE WESTERN TEST RANGE (AFWTR)

Note: This is SATELLITE DEBRIS
Your satellite tracking list
Your tracking list is empty




NASA's NSSDC Master Catalog

Two Line Element Set (TLE):
1 04710U 70025BY  24325.45729234  .00000277  00000-0  46576-3 0  9995
2 04710 100.1630 309.6675 0004893 142.5193  22.7160 13.55669347695782
Source of the keplerian elements: AFSPC